Location: Colorado Springs
(38.8340°N, 104.8210°W)
Time: 18:04:45
(UTC-07:00)

Vanguard 1 - Visible Passes

Search period start: 19 January 2018 00:00
Search period end: 29 January 2018 00:00
Orbit: 649 x 3834 km, 34.3° (Epoch: 18 January)

Date Brightness Start Highest point End Pass type
(mag) Time Alt. Az. Time Alt. Az. Time Alt. Az.
19 Jan 12.5 02:25:43 49° ESE 02:25:43 49° ESE 02:39:07 10° E visible
19 Jan 12.2 04:38:26 42° WSW 04:44:25 59° SSW 05:06:10 10° SE visible
20 Jan 13.8 00:32:52 10° E 00:32:52 10° E 00:32:59 10° E visible
20 Jan 12.3 02:45:35 56° SE 02:45:35 56° SE 03:00:48 10° ESE visible
20 Jan 12.4 04:58:17 34° WSW 05:05:44 51° SSW 05:26:58 10° SE visible
21 Jan 13.6 00:52:44 14° E 00:52:44 14° E 00:54:40 10° E visible
21 Jan 12.2 03:05:28 60° SSE 03:05:28 60° SSE 03:22:20 10° ESE visible
21 Jan 12.6 05:18:11 26° W 05:27:01 44° SSW 05:47:23 10° SE visible
22 Jan 13.4 01:12:39 19° E 01:12:39 19° E 01:16:21 10° E visible
22 Jan 12.1 03:25:23 60° S 03:25:23 60° S 03:43:40 10° ESE visible
22 Jan 12.9 05:38:06 19° W 05:48:16 36° SSW 06:07:23 10° SSE visible
23 Jan 13.3 01:32:35 23° ESE 01:32:35 23° ESE 01:38:01 10° ESE visible
23 Jan 12.1 03:45:19 54° SSW 03:45:25 54° SSW 04:04:45 10° SE visible
23 Jan 13.1 05:58:02 13° W 06:09:29 29° SW 06:26:47 10° SSE visible
24 Jan 13.1 01:52:33 28° ESE 01:52:33 28° ESE 01:59:36 10° ESE visible
24 Jan 12.2 04:05:17 46° SW 04:06:40 47° SSW 04:25:31 10° SE visible
24 Jan 13.3 06:19:15 10° W 06:30:42 22° SW 06:45:23 10° S visible
25 Jan 12.9 02:12:32 32° SE 02:12:32 32° SE 02:21:03 10° ESE visible
25 Jan 12.4 04:25:16 37° SW 04:27:56 39° SSW 04:45:53 10° SSE visible
25 Jan 13.5 06:43:00 10° WSW 06:51:57 16° SW 07:02:34 10° S visible
26 Jan 12.8 02:32:33 35° SE 02:32:33 35° SE 02:42:19 10° SE visible
26 Jan 12.6 04:45:16 29° SW 04:49:12 32° SSW 05:05:46 10° SSE visible
27 Jan 12.7 02:52:35 36° SSE 02:52:35 36° SSE 03:03:19 10° SE visible
27 Jan 12.9 05:05:19 21° WSW 05:10:29 25° SSW 05:25:01 10° SSE visible
28 Jan 12.7 03:12:38 35° S 03:12:38 35° S 03:23:59 10° SE visible
28 Jan 13.1 05:25:22 14° WSW 05:31:47 18° SW 05:43:15 10° S visible
